Tracking 35274 objects as of 11-Sep-2026
HD Live streaming from Space Station
objects crossing your sky now

SPACEBEE-97


SPACEBEE-97 is no longer on orbit


NORAD ID: 48946
Int'l Code: 2021-059BV
Launch date: June 30, 2021
Source: United States (US)
Launch site: AIR FORCE EASTERN TEST RANGE (AFETR)
Decay date: 2023-03-28
Your satellite tracking list
Your tracking list is empty




NASA's NSSDC Master Catalog

Two Line Element Set (TLE):
1 48946U 21059BV  23084.25669750  .11899296  25662-5  27484-2 0  9993
2 48946  97.5310 228.7474 0013888 288.1728  71.8053 16.29669845 97226
Source of the keplerian elements: AFSPC